Погода в Озерянах

Украина / Черниговская область     50°41′21″N   31°27′59″E
темп.,
°C
ветер,
м/с
пор.,
м/с
влажн.,
%
обл.,
%
осадки,
мм/ч
давл.,
гПа
погр.,
м
29 июня, ср
ср2900:00+20в347019 0.0 101865
03:00+20всв22779 0.1 101816
06:00+19в237092 0.0 101857
09:00+23всв1158100 0.3 1018222
12:00+29в22465 0.4 1017964
15:00+31юв223934 0.4 10162210
18:00+26в5958100 0.0 1015255
21:00+18всв4694100 20.2 1016126
30 июня, чт
чт3000:00+18ю3697100 1.4 1017212
03:00+18вюв229591 1.4 101685
06:00+17в24955 0.1 1016131
09:00+21в338368 0.1 1016614
12:00+23в457058 0.4 10161093
15:00+24в456167 1.0 10171169
18:00+24в45585 0.0 10161260
21:00+20вюв34775 0.0 101755
1 июля, пт
пт100:00+17ююв22860 0.0 101922
03:00+16св11880 0.0 101911
06:00+16ссв23890 0.0 102071
09:00+21св45630 0.0 1020544
12:00+25всв45450 0.0 10201416
15:00+26всв44430 0.0 10191925
18:00+26всв344718 0.0 10191873
21:00+22вюв356399 0.0 1020127
2 июля, сб
сб200:00+18вюв22675 0.0 102113
03:00+17з226813 0.0 102111
06:00+16с22745 0.0 102227
09:00+22ссв23585 0.0 1022440
12:00+26с23450 0.0 10221529
15:00+28ссз23396 0.0 10212291
18:00+28с334224 0.0 10202104
21:00+22всв226397 0.0 102011
3 июля, вс
вс300:00+20з116243 0.0 102011
03:00+19юз227041 0.0 102011
06:00+19зюз22719 0.0 102014
09:00+24з235582 0.0 1019377
12:00+28сз224131 0.0 10181709
15:00+30зсз23325 0.0 10172297
18:00+30сз34390 0.0 10161700
21:00+23сз5117222 0.2 1017323